{"data":{"norad_id":57037,"epoch":"2026-05-25T04:37:00.792192Z","epoch_age_seconds":48581,"freshness":"FRESH","line1":"1 57037U 23085AK  26145.19237028  .00003667  00000+0  18353-3 0  9994","line2":"2 57037  97.4843 250.8335 0006660 170.6094 189.5266 15.18017080162827","mean_motion":15.1801708,"eccentricity":0.000666,"inclination_deg":97.4843,"raan_deg":250.8335,"arg_perigee_deg":170.6094,"mean_anomaly_deg":189.5266,"bstar":0.00018353,"rev_number":16282,"period_min":94.860592741157,"perigee_km":507.24541656739,"apogee_km":516.42285812233,"semimajor_km":6889.9711373449,"source":"CELESTRAK","updated_at":"2026-05-25T13:37:59.795851Z"}}